Tracking 23114 objects as of 16-May-2021
HD Live streaming from Space Station
objects crossing your sky now

COSMOS 1249 COOLANT

Track COSMOS 1249 COOLANT now!
10-day predictions


NORAD ID: 28211
Int'l Code: 1981-021U
Perigee: 903.6 km
Apogee: 956.2 km
Inclination: 65.0 °
Period: 103.5 minutes
Semi major axis: 7300 km
RCS: 0.0033 m2 (small)
Launch date: March 5, 1981
Source: Commonwealth of Independent States (former USSR) (CIS)
Launch site: TYURATAM MISSILE AND SPACE COMPLEX (TTMTR)

Note: This is SATELLITE DEBRIS
aabbcc
Your satellite tracking list
Your tracking list is empty




NASA's NSSDC Master Catalog

Two Line Element Set (TLE):
1 28211U 81021U   21131.63521948 -.00000014  00000-0  59960-4 0  9991
2 28211  64.9625 138.9770 0036000 147.5746 212.7540 13.91677873389010
Source of the keplerian elements: AFSPC